www.pogodaiklimat.ru

Погода и климат >> Архив погоды >> Россия >> Магаданская область >> Остров Спафарьева


ПОГОДА на Острове Спафарьева

  • Прогноз погоды на Острове Спафарьева
  • Монитор погоды на Острове Спафарьева

АРХИВ ПОГОДЫ на Острове Спафарьева

Время (UTC), дата Ветер
(напр.,м/с)
 
Видим.   Явления Облачность Т
(С)
Тd
(С)
f
(%)
Тe
(С)
Тes
(С)
Комфортность P
(гПа)
Po
(гПа)
Тmin
(С)
Tmax
(С)
R
(мм)
R24
(мм)
S
(см)
09 15.02 С 2 50 км ясно -16.9 -27.6 39 -22 -22 994.7 987.8 -15.9
12 15.02 СВ 2 50 км ясно -17.2 -26.1 46 -23 -23 994.4 987.5
15 15.02 С 2 50 км 10/0
[Cs]
-17.9 -25.6 51 -23 -23 993.4 986.5
18 15.02 С 4 50 км 4/0
[Ci fib]
-18.5 -28.5 41 -27 -27 992.5 985.6
21 15.02 штиль 0 50 км 3/0
[Ci fib]
-18.5 -28.8 40 -19 -19 992.6 985.7 -18.8 15
00 16.02 С 1 50 км 1/0
[Ci fib]
-17.6 -26.7 45 -20 -19 992.3 985.4 -18.9
03 16.02 С 4 50 км 1/0
[Ci fib]
-16.8 -25.2 48 -25 -24 990.7 983.9
06 16.02 С 4 50 км 1/0
[Ci fib]
-16.2 -24.9 47 -24 -24 989.7 982.9
09 16.02 С 3 50 км ясно -17.3 -25.9 47 -24 -24 989.7 982.8 -16.1
12 16.02 СВ 3 50 км ясно -17.3 -25.5 49 -24 -24 989.6 982.7
15 16.02 С 1 50 км ясно -16.8 -25.0 49 -20 -20 989.3 982.5
18 16.02 С 3 50 км 3/0
[Ci fib]
-17.5 -25.4 50 -25 -25 989.7 982.9
21 16.02 СВ 4 50 км 3/0
[Ci fib]
-17.7 -24.6 55 -26 -26 990.5 983.6 -18.0 15
00 17.02 С 2 50 км 3/0
[Ci fib]
-16.4 -24.4 50 -22 -20 991.7 984.8
03 17.02 СЗ 3 50 км 9/0
[Ci fib]
-15.8 -23.4 52 -23 -21 992.2 985.4
06 17.02 С 4 50 км 9/0
[Ci fib]
-15.1 -23.4 49 -23 -23 993.2 986.2
09 17.02 С 3 50 км 10/0
[Cs]
-15.0 -22.4 53 -22 -22 994.7 987.9 -15.0
12 17.02 С 3 50 км 8/0
[Ac trans Ci fib]
-14.4 -20.5 60 -21 -21 995.7 988.8
15 17.02 СВ 2 50 км 9/0
[Ac trans Ci fib]
-14.7 -19.1 69 -20 -20 996.7 989.9
18 17.02 СВ 4 50 км 9/0
[Ac trans]
-14.7 -19.1 69 -22 -22 997.8 991.0
21 17.02 С 4 50 км 9/0
[Ac trans Ci fib]
-14.8 -20.5 62 -23 -23 999.2 992.3 -15.3 15
00 18.02 С 1 50 км 10/3 300 м
[St Cs]
-14.3 -19.1 67 -17 -16 1000.7 993.8
03 18.02 С 3 50 км 9/1 300 м
[St Ci fib]
-13.9 -20.0 60 -20 -19 1001.4 994.6
06 18.02 С 2 50 км 9/1 300 м
[St Cs]
-14.1 -20.2 60 -19 -19 1002.7 995.9
09 18.02 СВ 3 50 км 8/0
[Ci fib]
-15.8 -21.6 61 -23 -23 1004.3 997.4 -13.7
12 18.02 СВ 5 50 км 3/0
[Ci fib]
-16.0 -21.2 64 -25 -25 1005.7 998.8
15 18.02 В 4 50 км 3/0
[Ci fib]
-15.5 -20.2 67 -23 -23 1007.1 1000.2
18 18.02 В 4 50 км 3/0
[Ci fib]
-15.8 -20.9 65 -24 -24 1008.4 1001.5
21 18.02 В 3 50 км ясно -17.1 -21.8 67 -24 -24 1010.0 1003.0 -17.3 15
00 19.02 В 4 50 км ясно -15.4 -21.4 60 -23 -22 1011.3 1004.3 -17.8
03 19.02 СВ 3 50 км ясно -15.0 -21.6 57 -22 -20 1011.8 1004.8
06 19.02 СВ 3 50 км ясно -15.2 -21.6 58 -22 -22 1012.5 1005.6
09 19.02 СВ 3 50 км ясно -16.6 -23.0 58 -24 -24 1013.6 1006.6 -14.3
12 19.02 СВ 1 50 км ясно -16.3 -23.5 54 -19 -19 1013.9 1006.9
15 19.02 В 2 50 км ясно -15.4 -24.2 47 -20 -20 1014.2 1007.2
18 19.02 СВ 1 50 км ясно -16.8 -23.5 56 -20 -20 1014.5 1007.5
21 19.02 С 1 50 км ясно -17.4 -23.5 59 -20 -20 1014.9 1007.9 -17.6 15
00 20.02 штиль 0 50 км ясно -14.1 -22.3 50 -14 -12 1015.7 1008.8
03 20.02 СЗ 2 50 км ясно -14.9 -22.4 53 -20 -17 1015.7 1008.7
06 20.02 СЗ 3 50 км 1/0
[Ac trans]
-15.4 -24.2 47 -22 -22 1015.5 1008.5
09 20.02 С 4 50 км 1/0
[Ac trans]
-17.0 -25.0 50 -25 -25 1016.1 1009.1 -14.1
12 20.02 В 3 50 км 1/0
[Ac trans]
-16.9 -24.5 52 -24 -24 1016.2 1009.2
15 20.02 СВ 6 50 км 9/0
[Ac trans]
-16.7 -22.8 59 -27 -27 1016.1 1009.1
18 20.02 СВ 8-11
{11}
50 км 9/0
[Ac und]
-17.4 -23.5 59 -29 -29 1015.9 1008.9
21 20.02 СВ 8-11
{11}
50 км 9/0
[Ac und]
-17.4 -23.3 60 -29 -29 1016.0 1008.9 -17.6
00 21.02 СВ 8-11
{13}
50 км 9/0
[Ac trans]
-17.8 -23.7 60 -30 -29 1015.9 1008.8
03 21.02 СВ 6
{13}
50 км 9/0
[Ac trans]
-17.3 -23.6 58 -27 -27 1015.5 1008.4
06 21.02 СВ 5 50 км 9/0
[Ac trans Ci fib]
-16.9 -23.8 55 -26 -26 1014.9 1007.9
09 21.02 СВ 4 50 км 3/0
[Ac trans Ci fib]
-18.0 -24.3 58 -26 -26 1015.0 1008.0 -16.5
12 21.02 СВ 5 50 км ясно -18.0 -24.9 55 -28 -28 1014.6 1007.5
15 21.02 СВ 8
{10}
50 км 6/0
[Ci fib]
-18.5 -24.3 60 -30 -30 1013.6 1006.5
18 21.02 СВ 6 50 км 8/0
[Ac trans]
-18.5 -24.4 60 -29 -29 1012.7 1005.6
21 21.02 СВ 4 50 км 3/0
[Ac trans]
-18.4 -25.2 55 -27 -27 1011.9 1004.8 -19.1 15
00 22.02 штиль 0 50 км 1/0
[Ac trans]
-15.9 -24.6 47 -16 -14 1011.4 1004.4
03 22.02 СЗ 1 50 км 1/0
[Ac trans]
-16.2 -25.7 44 -19 -16 1010.1 1003.1
06 22.02 С 3 50 км ясно -16.7 -24.5 51 -24 -23 1009.0 1002.0

 

Местоположение метеостанции Остров Спафарьева (Магаданская область, Россия): широта 59.15 долгота 149.00 высота над уровнем моря 52 м.

В архиве по умолчанию представлена погода на Острове Спафарьева за последнюю неделю. Архивные данные за месяц целиком и за предыдущие месяцы, начиная с января 2011 года, Вы можете получить, выбрав интересующий диапазон дат из раскрывающегося списка и нажав кнопку "Ввод!".


*Определитесь, кто Вы:
робот инопланетянин человек

Внимание! Время в таблицах - всемирное. Для получения местного времени необходимо прибавить поправку, которая равна 11 ч.

Смотрите также архив погоды в соседних городах и на ближайших метеорологических станциях:

Погода в Талоне (Магаданская область, Россия) (72 км)
Погода в Армани (Магаданская область, Россия) (84 км)
Погода в Нагаева (Магаданская область, Россия) (106 км)
Погода в Магадане (Магаданская область, Россия) (106 км)
Погода в Оле (Магаданская область, Россия) (133 км)
Погода на Мысе Алевина (Магаданская область, Россия) (137 км)
Погода в Палатке (Магаданская область, Россия) (150 км)
Погода в Мадауне (Магаданская область, Россия) (187 км)
Погода в Усть-Омчуге (Магаданская область, Россия) (222 км)
Погода на Мысе Братьев (Магаданская область, Россия) (245 км)

Пояснения к столбцам:

Ветер - указаны скорость ветра в м/с - средняя за 10 мин, порывы в срок и между сроками (в фигурных скобках) и направление, откуда дует ветер: С - северный, СВ - северо-восточный, В - восточный, ЮВ - юго-восточный, Ю - южный, ЮЗ - юго-западный, З - западный, СЗ - северо-западный.
Видимость - горизонтальная дальность видимости в метрах или километрах. При видимости от 1 до 10 км при отсутствии осадков обычно наблюдается дымка, при ухудшении видимости до 1 км и менее - туман. В сухую погоду видимость может ухудшаться дымом, пылью или мглою.
Явления - указаны атмосферные явления, наблюдавшиеся в срок или в последний час перед сроком; фигурными скобками обозначены явления, наблюдавшиеся между сроками (за 1-3 часа до срока); квадратными скобками обозначены град или гололедные отложения с указанием их диаметра в мм.
Облачность - указаны через наклонную черту общая и нижняя облачность в баллах и высота нижней границы облаков в метрах; квадратными скобками обозначены формы облаков: Ci - перистые, Cs - перисто-слоистые, Cc - перисто-кучевые, Ac - высококучевые, As - высокослоистые, Sc - слоисто-кучевые, Ns - слоисто-дождевые, Cu - кучевые, Cb - кучево-дождевые. Подробнее классификацию облаков см. в Атласе облаков (PDF).
T - Температура воздуха - температура, измеренная на высоте 2 м над землей.
Td - Температура точки росы - температура, при понижении до которой содержащийся в воздухе водяной пар достигнет насыщения.
f - Относительная влажность воздуха - влажноcть воздуха, измеренная на высоте 2 м над землей.
Te - Эффективная температура - температура, которую ощущает одетый по сезону человек в тени. Характеристика душности погоды. При расчете учитывается влияние влажности воздуха и скорости ветра на теплоощущения человека.
Tes - Эффективная температура на солнце - температура, которую ощущает человек, с поправкой на солнечный нагрев. Характеристика знойности погоды. Зависит от высоты солнца над горизонтом, облачности и скорости ветра. Ночью, в пасмурную погоду, а также при ветре 12 м/с и более поправка равна нулю.
P - Атмосферное давление - приведенное к уровню моря атмосферное давление.
Po - Атмосферное давление - измеренное на уровне метеостанции атмосферное давление.
Tmin - Минимальная температура - минимум температуры воздуха на высоте 2 м над землей.
Tmax - Максимальная температура - максимум температуры воздуха на высоте 2 м над землей.
R - Количество осадков - Количество выпавших осадков за период времени, мм. При наведении курсора мыши на число - период времени, за который выпало указанное количество осадков.
R24 - Количество осадков - Количество выпавших осадков за 24 часа, мм.
S - Снежный покров - Высота снежного покрова, см. При наведении курсора мыши на число - состояние снежного покрова и степень покрытия местности в баллах.